This is the latest recevied weather packets stored in our database for station/object W5ADC. If no packets are shown the sender has not sent any weather packets the latest 10 day(s).
| Time | Temp. | Humidity | Pressure | Rain* | Wind** | Luminosity | Snow |
|---|---|---|---|---|---|---|---|
| 1777663376 | 17.78° C | 55% | 1012 hPa | 0 mm | - | 218 W/m² | - |
| 1777663074 | 17.78° C | 55% | 1011.5 hPa | 0 mm | - | 239 W/m² | - |
| 1777662771 | 17.78° C | 56% | 1011.5 hPa | 0 mm | - | 244 W/m² | - |
| 1777662468 | 17.22° C | 57% | 1012.2 hPa | 0 mm | - | 230 W/m² | - |
| 1777662163 | 17.78° C | 55% | 1012.1 hPa | 0 mm | - | 225 W/m² | - |
| 1777661859 | 17.78° C | 55% | 1012 hPa | 0 mm | - | 258 W/m² | - |
| 1777661555 | 17.78° C | 54% | 1011.8 hPa | 0 mm | - | 365 W/m² | - |
| 1777661251 | 18.33° C | 56% | 1011.7 hPa | 0 mm | - | 324 W/m² | - |
| 1777660947 | 18.33° C | 56% | 1011.8 hPa | 0 mm | - | 369 W/m² | - |
| 1777660643 | 17.78° C | 55% | 1012 hPa | 0 mm | - | 339 W/m² | - |
| 1777660340 | 18.33° C | 56% | 1012.3 hPa | 0 mm | - | 314 W/m² | - |
| 1777660036 | 18.33° C | 58% | 1012.5 hPa | 0 mm | - | 394 W/m² | - |
| 1777659734 | 18.33° C | 56% | 1012.5 hPa | 0 mm | - | 415 W/m² | - |
| 1777659430 | 17.78° C | 57% | 1012.2 hPa | 0 mm | - | 579 W/m² | - |
| 1777659128 | 18.33° C | 54% | 1012.5 hPa | 0 mm | - | 393 W/m² | - |
| 1777658826 | 18.89° C | 55% | 1012.5 hPa | 0 mm | - | 528 W/m² | - |
| 1777658521 | 18.89° C | 55% | 1012.9 hPa | 0 mm | - | 588 W/m² | - |
| 1777658218 | 17.78° C | 56% | 1012.7 hPa | 0 mm | - | 1106 W/m² | - |
| 1777657915 | 18.33° C | 56% | 1013.1 hPa | 0 mm | - | 309 W/m² | - |
| 1777657612 | 17.78° C | 58% | 1012.9 hPa | 0 mm | - | 842 W/m² | - |
| 1777657309 | 17.78° C | 58% | 1012.9 hPa | 0 mm | - | 895 W/m² | - |
| 1777657006 | 18.33° C | 59% | 1013.2 hPa | 0 mm | - | 917 W/m² | - |
| 1777656704 | 17.22° C | 59% | 1013.1 hPa | 0 mm | - | 939 W/m² | - |
| 1777656400 | 17.78° C | 60% | 1013.2 hPa | 0 mm | - | 410 W/m² | - |
| 1777656095 | 18.33° C | 60% | 1013.4 hPa | 0 mm | - | 689 W/m² | - |
* Rain latest hour (hover to see other rain measurements)
** Current wind speed in m/s (hover to see current wind gust speed)